Location: Waco, TX
(31.5480°N, 97.1670°W)
Time: 00:52:52
(UTC-06:00)

ISS - Pass Details

Date: 17 January 2018
Orbit: 402 x 407 km, 51.6° (Epoch: 21 January)

Event Time Altitude Azimuth Distance (km) Brightness Sun altitude
Rises 20:58:26 0° 203° (SSW) 2,295 - -39.8°
Reaches altitude 10° 21:00:40 10° 191° (S) 1,441 - -40.3°
Maximum altitude 21:03:29 28° 130° (SE) 779 - -40.9°
Drops below altitude 10° 21:06:20 10° 68° (ENE) 1,450 - -41.5°
Sets 21:08:35 0° 56° (ENE) 2,312 - -41.9°
